Date String (YYYY-MM-DD hh:mm:ss) UTC,Instrument flags,Ambient pressure (hPa),Sample flow (lpm),Bypass flow (lpm),Sample temperature (°C),Ambient temperature (°C),ASC tube jacket temperature (°C),LED temperature (°C),Box temperature (°C),Sample RH (%),Span deviation,Mass concentration (μg/m³),Mass concentration (μg/m³),Mass concentration (μg/m³)
DateTimeUTC,F1_M11,P_M11,Q1_M11,Q2_M11,T1_M11,T2_M11,T3_M11,T4_M11,T5_M11,U1_M11,ZSPAN_M11,X0_M11,X2_M11,X1_M11
2022-09-30 15:00:00,,0826.3,4.99,0.00,30.7,29.5,00.0,39.4,32.5,18.9,0000.0,0014.57,0004.75,0003.53
2022-09-30 15:01:00,,0826.3,5.01,0.00,30.7,29.6,00.0,39.4,32.6,19.1,0000.0,0014.72,0004.73,0003.54
2022-09-30 15:02:00,,0826.3,4.99,0.00,30.8,29.6,00.0,39.5,32.6,18.8,0000.0,0015.12,0004.74,0003.55
2022-09-30 15:03:00,,0826.3,5.01,0.00,30.8,29.6,00.0,39.5,32.6,18.7,0000.0,0014.56,0004.73,0003.56
2022-09-30 15:04:00,,0826.4,5.00,0.00,30.8,29.6,00.0,39.5,32.6,18.6,0000.0,0014.05,0004.73,0003.57
2022-09-30 15:05:00,,0826.4,5.00,0.00,30.8,29.7,00.0,39.5,32.6,18.5,0000.0,0015.08,0004.67,0003.59
2022-09-30 15:06:00,,0826.4,5.00,0.00,30.8,29.7,00.0,39.5,32.7,18.5,0000.0,0015.12,0004.56,0003.59
2022-09-30 15:07:00,,0826.5,5.00,0.00,30.9,29.7,00.0,39.5,32.7,18.3,0000.0,0014.83,0004.47,0003.58
2022-09-30 15:08:00,,0826.5,5.00,0.00,30.9,29.8,00.0,39.5,32.7,18.3,0000.0,0014.39,0004.39,0003.58
2022-09-30 15:09:00,,0826.5,5.01,0.00,30.9,29.8,00.0,39.6,32.7,18.1,0000.0,0014.13,0004.36,0003.59
2022-09-30 15:10:00,,0826.5,4.99,0.00,30.9,29.8,00.0,39.6,32.8,18.0,0000.0,0012.67,0004.32,0003.59
2022-09-30 15:11:00,,0826.5,5.00,0.00,30.9,28.9,00.0,39.6,32.8,17.4,0000.0,0012.21,0004.28,0003.59
2022-09-30 15:12:00,,0826.5,5.01,0.00,30.9,27.4,00.0,39.6,32.5,17.7,0000.0,0011.59,0004.29,0003.61
2022-09-30 15:13:00,,0826.5,5.00,0.00,30.8,27.2,00.0,39.5,32.5,17.7,0000.0,0011.21,0004.32,0003.62
2022-09-30 15:14:00,,0826.5,4.99,0.00,30.8,27.5,00.0,39.5,32.4,17.1,0000.0,0012.04,0004.27,0003.61
2022-09-30 15:15:00,,0826.5,5.01,0.00,30.7,27.8,00.0,39.4,32.3,17.3,0000.0,0011.99,0004.23,0003.60
2022-09-30 15:16:00,,0826.5,4.99,0.00,30.6,28.1,00.0,39.4,32.3,17.6,0000.0,0010.50,0004.20,0003.59
2022-09-30 15:17:00,,0826.5,5.00,0.00,30.6,28.4,00.0,39.4,32.3,17.5,0000.0,0010.16,0004.19,0003.59
2022-09-30 15:18:00,,0826.5,5.01,0.00,30.6,28.7,00.0,39.4,32.3,17.7,0000.0,0010.39,0004.25,0003.59
2022-09-30 15:19:00,,0826.4,5.02,0.00,30.6,28.9,00.0,39.4,32.3,17.6,0000.0,0010.21,0004.29,0003.59
2022-09-30 15:20:00,,0826.5,4.99,0.00,30.6,29.0,00.0,39.3,32.4,17.5,0000.0,0009.73,0004.26,0003.57
2022-09-30 15:21:00,,0826.4,5.01,0.00,30.6,29.1,00.0,39.4,32.4,17.2,0000.0,0009.32,0004.22,0003.56
2022-09-30 15:22:00,,0826.5,5.00,0.00,30.6,29.2,00.0,39.4,32.4,17.4,0000.0,0009.15,0004.22,0003.56
2022-09-30 15:23:00,,0826.5,4.98,0.00,30.6,29.3,00.0,39.4,32.4,16.8,0000.0,0009.14,0004.19,0003.54
2022-09-30 15:24:00,,0826.5,5.01,0.00,30.7,29.4,00.0,39.4,32.5,16.6,0000.0,0009.56,0004.14,0003.52
2022-09-30 15:25:00,,0826.5,5.00,0.00,30.7,29.4,00.0,39.4,32.5,16.9,0000.0,0009.51,0004.14,0003.52
2022-09-30 15:26:00,,0826.5,4.99,0.00,30.7,29.5,00.0,39.4,32.5,16.8,0000.0,0009.30,0004.11,0003.52
2022-09-30 15:27:00,,0826.5,5.01,0.00,30.7,29.6,00.0,39.4,32.6,16.8,0000.0,0009.61,0004.10,0003.52
2022-09-30 15:28:00,,0826.5,4.98,0.00,30.7,29.6,00.0,39.4,32.6,16.8,0000.0,0009.72,0004.08,0003.52
2022-09-30 15:29:00,,0826.5,5.01,0.00,30.8,29.5,00.0,39.4,32.6,17.0,0000.0,0010.38,0004.04,0003.52
2022-09-30 15:30:00,,0826.5,5.00,0.00,30.8,28.3,00.0,39.4,32.5,17.1,0000.0,0010.62,0004.00,0003.52
2022-09-30 15:31:00,,0826.5,5.00,0.00,30.7,27.3,00.0,39.4,32.3,17.1,0000.0,0010.49,0003.96,0003.53
2022-09-30 15:32:00,,0826.5,4.99,0.00,30.6,27.3,00.0,39.3,32.3,17.4,0000.0,0010.72,0003.97,0003.53
2022-09-30 15:33:00,,0826.5,5.00,0.00,30.6,27.5,00.0,39.3,32.2,17.9,0000.0,0011.30,0003.97,0003.53
2022-09-30 15:34:00,,0826.5,5.00,0.00,30.5,27.9,00.0,39.3,32.1,18.0,0000.0,0012.24,0004.00,0003.53
2022-09-30 15:35:00,,0826.5,5.00,0.00,30.5,28.2,00.0,39.2,32.1,18.1,0000.0,0012.20,0004.02,0003.54
2022-09-30 15:36:00,,0826.5,5.00,0.00,30.4,28.4,00.0,39.2,32.2,17.9,0000.0,0011.73,0004.07,0003.55
2022-09-30 15:37:00,,0826.5,5.00,0.00,30.4,28.5,00.0,39.2,32.2,18.0,0000.0,0011.76,0004.13,0003.55
2022-09-30 15:38:00,,0826.5,5.00,0.00,30.4,28.7,00.0,39.2,32.2,18.4,0000.0,0011.74,0004.15,0003.56
2022-09-30 15:39:00,,0826.5,4.99,0.00,30.5,28.9,00.0,39.2,32.3,18.3,0000.0,0011.63,0004.17,0003.56
2022-09-30 15:40:00,,0826.5,5.01,0.00,30.5,29.0,00.0,39.2,32.3,18.4,0000.0,0011.02,0004.19,0003.56
2022-09-30 15:41:00,,0826.5,5.00,0.00,30.5,29.1,00.0,39.2,32.4,18.1,0000.0,0010.73,0004.21,0003.56
2022-09-30 15:42:00,,0826.6,4.99,0.00,30.5,29.2,00.0,39.2,32.4,18.1,0000.0,0011.30,0004.23,0003.56
2022-09-30 15:43:00,,0826.5,4.97,0.00,30.5,29.3,00.0,39.2,32.4,18.1,0000.0,0011.37,0004.21,0003.56
2022-09-30 15:44:00,,0826.5,4.99,0.00,30.6,29.4,00.0,39.3,32.5,18.8,0000.0,0011.05,0004.22,0003.57
2022-09-30 15:45:00,,0826.5,5.01,0.00,30.6,29.4,00.0,39.3,32.5,18.7,0000.0,0010.67,0004.26,0003.58
2022-09-30 15:46:00,,0826.5,4.99,0.00,30.7,29.5,00.0,39.3,32.6,19.2,0000.0,0010.12,0004.31,0003.60
2022-09-30 15:47:00,,0826.5,5.01,0.00,30.7,29.5,00.0,39.3,32.6,19.4,0000.0,0010.03,0004.36,0003.63
2022-09-30 15:48:00,,0826.6,4.99,0.00,30.7,29.1,00.0,39.3,32.6,19.4,0000.0,0010.23,0004.40,0003.64
2022-09-30 15:49:00,,0826.5,5.00,0.00,30.7,27.7,00.0,39.3,32.5,19.9,0000.0,0010.32,0004.42,0003.66
2022-09-30 15:50:00,,0826.5,5.00,0.00,30.7,27.3,00.0,39.2,32.4,19.9,0000.0,0010.38,0004.50,0003.70
2022-09-30 15:51:00,,0826.6,5.00,0.00,30.6,27.5,00.0,39.2,32.3,19.5,0000.0,0010.49,0004.56,0003.74
2022-09-30 15:52:00,,0826.6,5.00,0.00,30.5,27.8,00.0,39.2,32.2,19.5,0000.0,0010.89,0004.60,0003.75
2022-09-30 15:53:00,,0826.6,4.99,0.00,30.5,28.1,00.0,39.2,32.2,19.7,0000.0,0011.24,0004.60,0003.77
2022-09-30 15:54:00,,0826.6,5.00,0.00,30.5,28.4,00.0,39.2,32.2,19.5,0000.0,0011.13,0004.61,0003.78
2022-09-30 15:55:00,,0826.6,5.00,0.00,30.5,28.6,00.0,39.2,32.3,19.0,0000.0,0011.21,0004.64,0003.79
2022-09-30 15:56:00,,0826.6,4.99,0.00,30.5,28.8,00.0,39.2,32.3,18.8,0000.0,0011.30,0004.61,0003.79
2022-09-30 15:57:00,,0826.6,5.01,0.00,30.5,28.7,00.0,39.1,32.3,18.8,0000.0,0011.40,0004.57,0003.78
2022-09-30 15:58:00,,0826.5,4.99,0.00,30.5,27.5,00.0,39.1,32.2,19.8,0000.0,0011.65,0004.58,0003.77
2022-09-30 15:59:00,,0826.5,5.00,0.00,30.4,26.3,00.0,39.0,32.1,19.9,0000.0,0011.98,0004.59,0003.77
